Temperature
19 19 19 19 18 18 19 20 20 20 20 19 19 19 18 18 18 18 18 19 19 18 18 18 18 18 18 18 18 19 19 19 19 19 19 19 19 19 19 19 19 19 19 19 19 19 19 19 19
19 19 19 19 18 19 20 20 20 20 20 20 19 19 18 18 18 18 18 18 18 18 18 18 18 18 18 18 18 18 18 18 18 18 18 18 18 18 19 19 19 19 19 19 19 19 19 19 18
19 19 19 17 18 19 20 20 20 20 20 20 19 18 18 18 18 18 19 18 18 18 18 18 18 18 18 18 18 18 18 18 18 18 18 18 18 18 18 18 18 19 19 19 19 19 19 18 18
19 19 18 18 19 20 20 20 20 20 20 20 19 18 18 18 18 18 18 18 18 18 18 18 18 18 18 17 17 17 17 17 17 17 17 17 18 18 18 18 18 18 18 18 18 18 18 18 18
19 19 18 19 19 20 20 20 20 20 20 19 19 18 18 18 18 18 18 18 18 18 18 18 18 18 17 17 17 17 17 17 17 17 17 17 17 17 17 17 18 18 18 18 18 18 18 18 18
19 18 18 19 20 20 20 20 20 20 19 19 19 18 18 18 18 18 18 18 18 18 18 18 17 17 17 17 17 17 17 17 17 17 17 17 17 17 17 17 17 18 18 18 18 18 18 18 18
19 17 19 19 19 20 21 20 20 20 19 19 19 18 18 18 18 18 18 18 18 18 18 17 17 17 17 17 17 16 16 16 16 16 17 17 17 17 17 17 17 17 17 17 17 18 18 18 18
20 18 19 19 19 20 21 21 21 20 20 20 20 18 18 19 18 18 18 18 18 18 17 17 17 16 16 16 16 16 16 16 16 16 16 16 16 17 17 17 17 17 17 17 17 17 17 18 18
20 18 19 19 19 20 20 20 20 21 20 20 20 20 20 19 18 18 18 18 18 18 17 17 16 16 16 16 15 15 15 15 15 16 16 16 16 16 16 17 17 17 17 17 17 17 17 17 17
19 18 20 19 19 19 20 20 20 20 20 19 19 19 19 19 19 19 18 18 18 17 17 16 16 15 15 15 15 15 15 15 15 15 15 15 16 16 16 16 16 16 17 17 17 17 17 17 17
19 19 19 19 20 20 20 20 21 20 19 20 20 20 19 19 19 19 18 18 18 17 17 16 15 15 15 15 14 14 14 15 15 15 15 15 15 15 16 16 16 16 16 16 16 17 17 17 17
18 19 19 19 20 20 20 20 20 20 21 22 21 20 20 19 19 19 18 18 17 17 16 16 15 15 14 14 14 14 14 14 14 14 15 15 15 15 15 15 15 16 16 16 16 16 16 17 17
18 19 19 19 20 20 20 20 20 20 21 21 21 20 20 19 19 19 18 18 17 17 16 15 15 15 14 14 14 14 14 14 14 14 14 14 15 15 15 15 15 15 15 16 16 16 16 16 17
18 18 19 19 20 20 20 20 20 21 21 21 20 20 20 19 19 19 18 18 17 16 16 15 15 14 14 14 14 14 14 14 14 14 14 14 14 14 15 15 15 15 15 15 16 16 16 16 16
18 18 19 19 19 20 20 19 19 21 21 20 20 20 20 19 19 19 18 18 17 16 16 15 14 14 14 14 14 13 13 13 13 13 13 14 14 14 14 14 15 15 15 15 15 15 16 16 16
18 18 19 19 19 19 20 19 20 21 20 19 20 19 19 19 19 18 18 17 17 16 15 15 14 14 14 14 13 13 13 13 13 13 13 13 13 14 14 14 14 14 15 15 15 15 15 15 16
18 18 19 19 19 19 19 19 20 20 20 19 19 19 19 19 18 18 18 17 17 16 15 15 14 14 14 13 13 13 13 13 13 13 13 13 13 13 13 13 14 14 14 14 14 15 15 15 15
18 18 19 19 19 19 18 18 19 19 19 19 19 19 19 19 19 18 17 17 16 16 15 14 14 13 13 13 13 13 13 13 13 13 13 13 13 13 13 13 13 13 14 14 14 14 15 15 15
19 19 19 20 20 19 18 18 19 19 18 18 18 18 19 19 18 18 17 17 16 16 15 14 14 13 13 13 13 13 12 12 12 12 12 12 12 13 13 13 13 13 13 13 14 14 14 14 15
19 19 20 20 20 19 18 18 18 18 18 18 18 18 19 19 18 18 17 17 16 15 15 14 14 13 13 13 12 12 12 12 12 12 12 12 12 12 12 12 13 13 13 13 13 13 14 14 14
19 19 20 20 20 19 19 19 18 18 18 18 19 19 19 19 19 18 17 17 16 15 15 14 14 13 13 13 12 12 12 12 12 12 12 12 12 12 12 12 12 12 12 13 13 13 13 13 14
19 20 20 20 19 18 19 17 18 17 17 17 18 18 19 19 19 18 17 17 16 16 15 14 14 13 13 13 12 12 12 12 12 12 12 12 12 12 12 12 12 12 12 12 12 13 13 13 13
20 20 19 19 19 17 17 17 17 17 17 17 17 18 19 19 19 18 18 17 16 15 15 14 14 13 13 13 13 12 12 12 12 12 12 12 12 12 12 12 12 12 12 12 12 12 12 13 13
19 18 17 15 16 17 18 17 17 16 17 17 17 18 19 19 19 18 18 17 16 15 15 14 14 13 13 13 13 12 12 12 12 12 12 12 11 12 12 12 12 12 12 12 12 12 12 12 12
19 18 17 18 16 16 17 17 16 17 17 17 17 19 20 20 19 18 18 17 16 16 15 15 14 14 13 13 13 13 12 12 12 12 12 12 11 11 11 11 11 11 11 12 12 12 12 12 12
19 18 17 18 17 16 17 16 17 18 18 19 19 20 20 19 19 19 18 17 17 16 15 15 14 14 14 13 13 13 12 12 12 12 12 12 11 11 11 11 11 11 11 11 11 12 12 12 12
18 17 17 15 16 16 16 16 17 18 18 18 18 18 19 20 19 19 18 18 17 16 16 15 15 14 14 14 13 13 13 12 12 12 12 12 11 11 11 11 11 11 11 11 11 11 11 11 11
18 15 14 15 16 17 16 17 17 18 18 18 16 17 19 20 19 19 18 18 17 16 16 15 15 15 14 14 14 13 13 12 12 12 12 12 11 11 11 11 11 11 11 11 11 11 11 11 11
18 17 14 13 14 15 16 16 17 17 17 17 17 19 20 20 20 19 19 18 17 16 16 16 15 15 15 14 14 13 13 13 12 12 12 12 12 11 11 11 11 11 11 11 11 11 11 11 11
19 17 15 16 16 13 14 15 17 16 16 17 18 20 21 21 20 20 19 18 17 17 16 16 15 15 15 14 14 14 13 13 13 13 12 12 12 12 11 11 11 11 11 11 11 11 11 11 11
Wind_Speed
8 8 3 3 4 3 2 3 1 1 3 3 5 6 6 5 3 2 2 0 2 3 4 5 5 4 4 4 3 3 3 3 4 4 4 5 5 6 6 6 5 5 4 4 3 3 2 2 2
7 4 3 3 3 1 3 2 1 1 4 4 5 5 6 5 2 2 2 0 2 3 3 3 4 4 4 4 4 4 4 4 5 5 5 6 6 6 6 6 6 6 6 5 4 4 3 2 2
7 3 3 3 1 3 2 1 1 3 4 2 4 4 4 2 1 1 1 2 3 3 2 1 2 1 1 2 2 4 5 5 6 7 7 7 8 8 8 8 7 7 7 6 6 5 4 4 3
5 3 3 1 2 3 3 1 3 4 3 4 4 4 3 2 0 1 2 4 4 2 1 0 1 2 2 3 3 4 5 5 6 7 8 8 8 9 9 9 8 8 8 7 7 6 5 5 4
3 3 2 1 2 3 2 2 2 2 2 3 4 4 2 2 2 3 4 4 3 2 2 3 3 3 4 4 4 5 5 6 6 7 7 8 8 8 9 9 9 9 9 9 8 7 7 6 5
3 3 2 2 3 2 1 1 3 3 4 4 4 5 1 1 2 3 4 4 3 2 3 4 4 4 4 5 5 5 5 6 6 7 8 8 8 9 9 9 9 9 9 9 9 8 8 7 7
3 3 2 2 2 2 1 2 4 4 4 4 6 5 2 1 2 3 4 4 3 3 2 3 4 5 6 6 6 6 6 6 7 7 7 8 8 9 9 9 9 10 10 10 9 9 9 8 8
4 3 1 1 2 2 1 2 1 4 3 4 5 7 5 4 5 5 5 4 3 2 2 3 4 5 6 6 7 7 7 7 7 7 7 7 7 8 8 9 8 9 9 10 10 9 9 9 8
3 3 2 3 3 2 1 2 1 2 4 3 2 4 5 8 8 6 4 2 1 2 2 3 3 5 5 5 6 7 7 8 8 8 8 7 6 6 6 8 9 9 9 9 9 9 9 8 7
3 3 4 3 4 3 1 2 4 3 3 2 3 4 7 8 8 6 5 3 2 0 1 2 3 3 4 5 5 6 6 7 6 6 7 6 5 5 6 7 8 8 8 7 7 7 7 6 4
3 4 3 2 2 2 3 3 4 7 4 7 8 9 8 7 7 7 5 4 3 1 1 1 2 3 3 3 4 4 5 5 6 6 6 5 4 5 4 4 6 6 6 4 3 3 3 2 3
3 2 1 1 1 1 3 3 4 6 7 7 10 11 10 9 8 8 7 5 3 2 1 1 1 2 3 3 3 3 3 3 4 5 6 4 2 3 3 2 4 3 3 2 2 1 2 2 3
2 2 1 2 2 1 2 2 3 5 3 7 9 9 10 9 7 5 5 4 4 2 1 1 1 2 2 3 3 3 3 3 4 5 5 4 2 3 2 2 2 3 2 2 1 1 2 2 2
2 1 1 1 1 1 2 1 2 5 5 9 10 10 9 9 8 6 5 5 4 3 2 0 1 2 2 2 2 2 3 3 4 5 6 5 3 2 2 3 3 2 2 2 1 2 2 2 2
2 2 3 2 2 1 2 3 6 5 8 9 9 8 8 7 7 7 7 6 5 3 2 1 1 2 3 3 3 2 3 3 3 4 6 6 5 3 2 2 3 3 3 2 1 1 1 1 2
3 3 2 4 3 2 4 7 6 6 10 10 8 7 7 6 6 6 6 5 4 3 1 1 1 2 2 3 3 2 3 3 3 4 6 6 6 4 2 2 3 3 3 1 1 0 0 1 1
2 1 4 5 4 4 5 7 4 6 10 10 8 8 7 6 6 6 6 5 4 3 2 1 1 2 2 3 3 3 3 3 3 4 5 6 6 6 3 2 3 4 2 2 1 0 0 0 1
5 4 5 6 4 6 6 9 6 5 9 9 8 8 7 8 8 6 6 5 4 2 2 1 1 2 2 3 3 3 4 3 4 4 4 6 6 6 4 2 3 3 3 2 2 1 0 0 1
5 5 6 6 5 7 8 10 8 6 8 9 8 8 9 9 6 5 5 5 4 2 2 1 1 1 1 2 2 2 3 3 3 4 6 6 6 6 4 3 3 3 3 3 2 1 1 1 1
4 5 6 4 3 6 5 9 8 7 9 10 11 11 10 8 6 6 6 5 4 3 3 2 2 2 1 0 0 0 1 2 2 3 4 6 6 5 4 4 3 3 3 4 3 2 1 1 1
6 7 6 4 2 2 2 7 6 3 5 6 7 8 8 11 10 9 7 6 5 5 5 4 4 3 2 0 1 2 2 3 4 4 4 5 6 5 4 4 3 3 2 2 3 2 1 1 1
6 6 5 3 3 3 0 4 8 4 4 6 8 8 9 9 9 8 8 7 7 7 5 5 4 3 2 0 1 1 1 1 2 3 3 5 5 5 4 4 3 3 2 2 2 2 1 1 0
4 3 4 3 3 2 1 2 8 2 6 9 10 10 10 10 10 10 10 9 8 7 6 5 4 4 2 1 1 1 1 1 2 2 4 4 4 5 5 4 3 3 2 2 2 2 2 1 1
6 7 7 6 5 2 4 5 7 5 8 7 8 10 10 10 10 9 8 7 6 5 5 5 5 5 3 2 2 2 2 2 2 3 3 4 3 4 5 4 3 3 2 2 2 2 2 1 0
5 6 4 4 4 6 3 4 9 7 8 8 9 10 10 10 10 9 9 9 8 8 7 6 6 6 4 3 3 3 3 3 3 3 2 3 3 3 5 4 3 3 3 2 2 2 2 1 1
5 8 6 4 5 5 2 6 8 7 6 5 6 7 9 9 10 10 11 10 9 9 8 7 7 7 5 4 4 4 3 3 3 3 2 2 2 3 4 4 3 3 3 3 2 2 2 1 1
7 4 6 6 2 3 6 8 9 3 1 2 4 6 9 10 11 11 10 9 9 9 9 8 8 7 6 5 4 4 4 3 3 3 2 2 3 3 3 3 3 3 3 3 2 2 2 2 2
5 9 6 5 3 4 7 6 6 7 8 6 6 8 9 9 9 10 9 9 9 9 8 7 7 7 6 5 5 4 4 4 3 2 3 3 3 2 3 3 3 3 3 3 2 2 2 2 3
5 5 6 5 5 5 4 8 7 9 9 10 10 9 10 10 11 10 10 9 8 7 6 6 6 6 5 5 4 4 3 3 2 3 3 3 2 2 2 2 3 3 3 3 2 2 2 2 3
6 8 8 5 4 5 4 8 8 8 9 9 10 9 8 9 9 9 9 8 7 8 7 7 7 6 6 5 4 4 3 2 3 3 3 2 2 2 2 2 2 3 3 2 2 3 2 3 4
Wind_Direction
134 109 85 55 55 46 297 288 284 15 55 47 50 69 80 70 66 101 305 83 147 151 177 189 185 181 182 182 189 202 204 206 209 210 208 206 203 198 196 193 190 190 187 189 185 177 166 146 132
125 102 63 54 84 109 276 293 353 90 137 129 62 63 72 69 58 68 348 15 126 136 157 194 197 196 199 205 216 228 235 238 242 242 238 235 231 225 219 215 210 209 206 205 201 198 198 187 169
124 79 76 63 110 192 232 272 125 81 103 102 79 57 79 77 49 56 300 119 106 108 120 220 230 231 241 242 250 259 261 258 256 256 255 251 246 242 235 229 225 223 220 218 214 210 213 214 213
114 74 66 75 241 234 225 228 139 124 86 70 101 78 64 32 62 145 108 110 102 80 86 298 295 306 304 292 284 283 284 286 283 279 273 264 255 250 246 240 235 232 230 228 225 223 221 225 226
78 95 98 228 260 268 241 220 165 125 86 82 101 102 71 10 71 102 107 107 105 77 36 6 355 344 331 330 322 310 305 301 296 291 289 283 274 267 259 253 246 242 238 236 232 231 230 232 233
83 85 109 226 253 291 298 143 130 116 112 119 115 117 132 57 109 111 107 104 102 86 38 16 2 2 351 342 334 325 318 314 311 306 300 296 292 285 275 267 257 250 247 243 239 232 233 238 237
128 125 180 213 256 284 196 139 139 132 135 156 140 123 155 198 170 124 104 92 75 57 39 10 4 5 3 354 343 336 327 322 318 316 315 309 299 293 290 284 274 264 255 249 246 242 239 240 242
142 125 142 216 231 237 152 119 119 129 136 131 136 144 182 192 147 110 91 73 53 33 16 359 2 4 359 351 348 347 342 333 325 322 316 311 305 302 300 296 288 281 273 261 251 245 244 244 246
109 89 198 214 200 236 150 124 90 84 111 99 132 163 165 136 126 114 98 61 38 27 11 9 3 357 353 347 359 358 351 347 345 340 330 327 320 307 299 297 293 282 277 271 263 252 247 248 247
114 150 217 214 193 191 163 156 159 119 112 111 86 88 114 127 137 144 155 166 170 325 350 14 2 356 1 1 1 356 351 348 346 341 337 333 327 316 308 306 305 297 286 278 271 264 257 250 243
148 183 216 236 233 176 157 169 157 142 187 192 175 160 145 144 153 163 176 181 187 188 61 19 355 357 5 356 352 350 346 347 348 345 338 336 339 335 332 322 316 310 301 300 289 276 251 226 209
148 209 197 225 230 157 174 167 163 190 216 190 170 158 156 164 174 179 182 180 161 137 132 359 355 2 0 360 350 352 352 352 356 351 350 347 339 332 329 319 310 306 300 294 288 263 239 213 210
168 201 226 227 248 228 165 190 206 232 212 141 143 151 166 174 180 185 177 166 157 162 201 307 356 8 357 0 352 12 356 357 359 360 2 360 338 327 325 316 317 305 293 273 264 254 234 217 209
168 174 258 272 256 275 158 228 193 241 150 142 154 169 178 179 178 168 165 167 174 185 205 255 13 13 11 15 8 358 358 3 11 5 358 1 350 329 329 326 324 318 304 283 260 242 232 224 209
77 42 342 255 204 201 127 274 232 211 153 161 172 178 181 185 180 179 179 177 183 191 203 231 184 31 22 18 7 9 8 16 13 2 3 7 2 349 341 332 334 325 320 316 295 277 230 226 218
68 55 306 268 177 169 156 254 253 181 166 180 185 185 186 192 193 190 180 175 178 176 189 273 55 43 20 17 4 5 18 21 8 1 7 8 6 5 0 353 340 336 341 351 342 16 239 234 221
47 238 256 279 190 157 181 247 278 177 178 190 192 193 193 194 196 192 182 177 174 174 178 159 30 17 8 12 14 18 21 18 10 10 9 4 7 11 14 4 349 351 351 356 336 59 172 259 259
203 218 243 249 209 167 202 249 266 189 190 199 198 196 198 200 204 191 179 171 161 160 164 138 14 353 0 8 15 14 16 9 10 8 4 5 7 11 13 6 3 6 9 3 2 354 46 284 277
174 196 240 250 197 179 218 248 261 202 198 206 204 202 207 210 204 183 170 157 151 160 173 195 253 318 2 17 13 8 352 340 350 357 5 9 9 10 14 14 11 15 21 6 3 6 23 3 340
179 209 245 274 175 187 240 265 265 211 206 206 202 204 203 195 185 185 175 171 182 191 202 222 239 267 292 293 280 268 300 310 308 324 354 10 8 6 16 18 11 11 18 19 19 26 27 354 20
202 205 222 223 83 67 332 306 288 257 215 203 200 199 196 192 192 189 185 192 196 208 212 216 228 244 260 332 45 28 20 2 357 352 348 345 354 5 14 12 10 11 24 14 4 17 57 11 352
227 228 199 158 116 281 90 281 289 283 244 218 208 197 197 195 188 189 190 197 207 216 215 221 228 240 249 183 97 89 71 339 303 308 318 329 348 1 11 14 12 13 18 14 350 24 24 87 19
199 71 107 97 129 356 327 198 286 296 248 239 221 209 202 195 189 192 196 201 209 211 211 220 230 245 245 217 186 155 203 255 293 314 334 344 346 356 3 6 8 10 10 11 14 15 24 59 142
124 72 58 52 70 309 237 182 278 238 225 237 217 207 199 192 191 196 198 199 213 217 218 219 227 246 246 236 227 217 235 262 308 327 337 338 337 341 352 357 1 359 360 2 8 17 24 19 48
95 91 30 352 0 257 266 210 250 258 242 229 216 205 194 186 184 190 195 203 212 217 219 219 223 243 248 243 243 238 242 244 253 273 293 315 327 327 332 348 348 348 345 351 9 21 16 19 37
153 139 159 212 238 283 299 239 256 263 271 237 210 189 182 185 188 195 200 203 210 217 220 218 223 238 245 241 245 243 243 235 246 254 260 277 278 288 311 332 339 345 354 8 18 15 354 11 5
133 156 156 133 176 280 284 285 300 246 253 164 162 168 190 195 195 200 202 204 210 217 220 217 221 235 242 237 240 245 243 238 249 261 267 273 279 290 321 338 348 353 2 7 16 9 353 353 336
134 139 106 119 159 271 296 285 259 252 233 214 200 202 209 204 201 203 203 207 212 219 222 219 221 230 238 235 235 236 236 241 244 253 276 285 294 311 335 349 357 1 4 8 13 354 342 357 338
119 105 106 111 147 162 276 279 234 235 224 214 217 213 208 202 203 204 206 208 211 218 219 221 225 229 237 237 233 239 248 246 241 250 268 279 296 316 330 337 345 351 355 356 359 340 338 341 333
179 169 149 156 207 177 193 270 270 256 242 221 222 221 214 208 206 203 201 200 205 215 219 221 224 227 234 230 225 232 241 235 242 256 265 267 291 304 308 326 339 338 340 339 337 325 329 324 320
Height
1515 1515 1517 1518 1520 1526 1527 1520 1515 1515 1515 1516 1515 1515 1517 1520 1523 1528 1524 1522 1522 1523 1524 1525 1526 1527 1528 1528 1529 1529 1529 1529 1529 1529 1530 1530 1529 1529 1529 1529 1529 1530 1530 1530 1530 1530 1530 1530 1530
1515 1516 1519 1519 1524 1532 1527 1517 1516 1515 1515 1516 1516 1517 1518 1520 1521 1522 1522 1523 1523 1524 1525 1526 1527 1527 1528 1528 1528 1528 1528 1528 1528 1528 1528 1528 1528 1528 1528 1528 1528 1528 1528 1529 1529 1529 1529 1529 1529
1516 1517 1519 1521 1526 1529 1524 1516 1515 1515 1515 1516 1517 1518 1520 1522 1522 1523 1523 1524 1525 1525 1526 1526 1527 1527 1527 1527 1527 1527 1527 1527 1527 1527 1527 1527 1526 1526 1526 1527 1527 1527 1527 1527 1527 1528 1528 1528 1528
1516 1519 1521 1525 1526 1521 1518 1515 1514 1515 1516 1516 1518 1520 1521 1523 1523 1524 1524 1525 1525 1526 1526 1526 1527 1527 1526 1526 1525 1525 1525 1525 1525 1524 1525 1525 1525 1525 1525 1525 1525 1525 1525 1526 1526 1526 1527 1527 1527
1516 1518 1523 1526 1523 1517 1514 1514 1515 1515 1516 1517 1518 1520 1522 1523 1523 1524 1525 1525 1526 1526 1526 1526 1526 1526 1525 1525 1524 1524 1523 1523 1522 1522 1522 1522 1523 1523 1523 1523 1523 1523 1524 1524 1524 1524 1525 1526 1526
1516 1518 1526 1529 1522 1516 1514 1514 1515 1515 1516 1518 1518 1520 1522 1523 1524 1524 1525 1526 1526 1526 1526 1526 1525 1525 1524 1523 1523 1522 1521 1521 1520 1520 1520 1520 1520 1520 1520 1520 1521 1521 1521 1522 1522 1523 1523 1524 1525
1517 1519 1523 1523 1522 1518 1515 1514 1515 1515 1516 1518 1518 1520 1522 1523 1524 1524 1525 1526 1526 1526 1526 1525 1525 1524 1523 1522 1521 1520 1520 1519 1518 1517 1517 1517 1517 1517 1517 1517 1518 1519 1519 1520 1520 1521 1522 1522 1523
1514 1518 1521 1523 1522 1518 1514 1514 1515 1515 1517 1518 1518 1519 1521 1523 1524 1524 1525 1526 1526 1526 1525 1525 1524 1523 1522 1521 1520 1519 1518 1517 1516 1515 1515 1514 1514 1514 1514 1515 1515 1516 1517 1517 1518 1518 1519 1520 1521
1513 1520 1524 1520 1519 1516 1513 1514 1515 1516 1516 1517 1518 1519 1520 1522 1523 1524 1525 1526 1526 1525 1525 1524 1523 1521 1520 1519 1518 1517 1516 1515 1514 1513 1513 1512 1512 1511 1511 1512 1513 1513 1514 1515 1515 1516 1517 1518 1519
1512 1520 1517 1514 1513 1513 1512 1513 1514 1515 1516 1517 1518 1519 1520 1521 1523 1524 1525 1525 1525 1525 1524 1523 1522 1521 1519 1518 1516 1515 1514 1513 1512 1511 1511 1510 1509 1509 1509 1509 1510 1510 1511 1512 1512 1514 1515 1516 1517
1510 1514 1512 1511 1511 1511 1511 1512 1513 1514 1516 1515 1516 1517 1519 1521 1522 1523 1524 1524 1525 1524 1523 1522 1521 1520 1518 1516 1515 1513 1512 1511 1510 1510 1509 1508 1507 1507 1507 1507 1507 1508 1508 1509 1510 1511 1512 1513 1515
1510 1510 1510 1510 1511 1510 1510 1511 1512 1512 1512 1513 1514 1516 1518 1520 1521 1523 1523 1524 1524 1524 1523 1522 1521 1519 1517 1515 1513 1512 1511 1510 1509 1508 1507 1506 1506 1505 1505 1505 1505 1505 1506 1507 1508 1509 1510 1511 1513
1509 1509 1509 1509 1510 1509 1510 1511 1511 1510 1511 1513 1515 1517 1518 1519 1521 1522 1523 1524 1524 1523 1522 1521 1520 1518 1516 1514 1513 1511 1509 1508 1507 1506 1505 1505 1504 1504 1503 1503 1503 1503 1504 1504 1505 1506 1507 1508 1510
1508 1508 1509 1509 1509 1509 1510 1510 1511 1509 1510 1512 1514 1516 1518 1519 1520 1521 1522 1523 1523 1523 1522 1521 1519 1517 1516 1514 1512 1510 1509 1508 1506 1505 1504 1503 1503 1502 1502 1502 1501 1501 1502 1502 1503 1503 1505 1506 1507
1508 1510 1510 1508 1509 1509 1510 1512 1509 1508 1510 1511 1513 1515 1517 1518 1520 1520 1521 1522 1522 1522 1521 1520 1518 1517 1515 1513 1511 1510 1508 1507 1506 1504 1503 1502 1501 1501 1500 1500 1500 1500 1500 1500 1501 1501 1502 1503 1504
1510 1514 1516 1508 1508 1509 1513 1516 1506 1507 1509 1510 1512 1514 1516 1517 1519 1520 1521 1522 1522 1522 1521 1519 1518 1516 1514 1513 1511 1509 1508 1507 1505 1504 1503 1501 1500 1499 1499 1498 1498 1498 1498 1498 1499 1499 1500 1501 1502
1516 1520 1518 1511 1506 1508 1511 1512 1505 1505 1507 1509 1511 1513 1514 1516 1518 1519 1520 1521 1521 1521 1520 1519 1517 1515 1514 1512 1510 1509 1507 1506 1505 1504 1503 1501 1500 1499 1498 1497 1497 1496 1496 1497 1497 1497 1498 1499 1500
1519 1519 1516 1512 1505 1507 1510 1508 1504 1504 1506 1507 1509 1511 1513 1514 1516 1518 1519 1520 1520 1520 1520 1518 1517 1515 1513 1511 1510 1509 1507 1506 1505 1504 1502 1501 1500 1499 1497 1497 1496 1495 1495 1495 1495 1496 1496 1497 1498
1508 1513 1513 1507 1502 1507 1509 1507 1503 1503 1505 1506 1507 1509 1510 1512 1515 1517 1518 1519 1519 1519 1519 1518 1516 1514 1513 1511 1510 1508 1507 1506 1505 1504 1502 1501 1500 1499 1497 1496 1495 1495 1494 1494 1494 1494 1494 1495 1496
1507 1511 1510 1505 1502 1505 1508 1507 1501 1500 1501 1501 1503 1505 1507 1510 1513 1515 1516 1517 1518 1519 1518 1517 1516 1514 1512 1511 1510 1509 1507 1506 1505 1504 1502 1501 1500 1498 1497 1496 1495 1494 1494 1493 1493 1493 1493 1493 1494
1507 1509 1507 1506 1505 1505 1508 1509 1502 1498 1498 1499 1501 1503 1505 1507 1509 1512 1514 1516 1517 1518 1517 1516 1515 1514 1512 1511 1510 1509 1508 1507 1505 1504 1503 1501 1500 1498 1497 1496 1495 1494 1493 1493 1492 1492 1492 1492 1493
1508 1500 1501 1504 1512 1518 1514 1526 1507 1500 1498 1497 1498 1500 1502 1505 1507 1510 1512 1514 1516 1516 1516 1516 1515 1514 1513 1511 1510 1509 1508 1507 1505 1504 1503 1501 1500 1498 1497 1496 1495 1494 1493 1492 1492 1492 1492 1492 1492
1500 1498 1502 1506 1512 1520 1517 1524 1514 1502 1500 1496 1494 1496 1498 1502 1505 1508 1510 1513 1514 1515 1515 1515 1514 1514 1513 1512 1511 1509 1508 1507 1506 1504 1503 1502 1500 1499 1497 1496 1495 1494 1493 1492 1492 1491 1491 1491 1491
1497 1503 1509 1517 1522 1530 1519 1525 1519 1505 1496 1491 1490 1492 1495 1499 1502 1506 1509 1512 1513 1514 1514 1514 1514 1513 1512 1512 1511 1509 1508 1507 1506 1504 1503 1501 1500 1499 1497 1496 1495 1494 1493 1492 1491 1491 1490 1490 1490
1499 1514 1529 1530 1538 1533 1518 1520 1514 1493 1489 1487 1487 1488 1492 1496 1500 1504 1507 1509 1511 1512 1512 1513 1513 1512 1512 1511 1510 1509 1508 1507 1505 1504 1503 1501 1500 1498 1497 1496 1495 1493 1492 1491 1490 1490 1489 1489 1489
1502 1509 1529 1536 1539 1531 1519 1520 1502 1488 1484 1483 1484 1486 1490 1493 1497 1501 1504 1507 1508 1510 1511 1511 1511 1511 1511 1510 1509 1508 1507 1506 1505 1504 1502 1501 1499 1498 1497 1495 1494 1493 1492 1491 1490 1489 1488 1488 1488
1503 1509 1511 1526 1529 1533 1525 1513 1495 1484 1483 1483 1483 1485 1488 1491 1494 1498 1502 1504 1506 1508 1509 1510 1510 1510 1510 1509 1508 1507 1506 1505 1504 1503 1502 1500 1499 1497 1496 1495 1494 1492 1491 1490 1489 1488 1487 1487 1486
1497 1506 1519 1527 1535 1537 1528 1517 1506 1489 1484 1483 1483 1484 1485 1489 1492 1495 1499 1502 1504 1506 1507 1508 1508 1508 1508 1508 1507 1506 1505 1504 1503 1502 1501 1499 1498 1497 1495 1494 1493 1492 1490 1489 1488 1487 1486 1485 1485
1502 1507 1516 1527 1529 1538 1536 1519 1489 1484 1480 1480 1480 1481 1483 1486 1489 1493 1496 1499 1502 1504 1505 1506 1507 1507 1507 1506 1506 1505 1504 1503 1502 1501 1500 1499 1497 1496 1494 1493 1492 1491 1489 1488 1487 1486 1485 1484 1483
1492 1499 1510 1520 1524 1531 1534 1518 1480 1479 1477 1477 1477 1479 1481 1484 1487 1490 1493 1496 1499 1501 1503 1504 1505 1505 1505 1505 1504 1504 1503 1502 1501 1500 1499 1498 1496 1495 1494 1492 1491 1490 1489 1487 1486 1485 1484 1483 1482